Rbgn^[z[y[W
メイン
   新天体発見情報
     Comet C/2023 S2 (ATLAS)
投稿するにはまず登録を

フラット表示 前のトピック | 次のトピック
投稿者 スレッド
佐藤裕久
投稿日時: 2023-10-13 18:41
モデレータ
登録日: 2005-6-12
居住地: 日本
投稿: 2548
オンライン
Comet C/2023 S2 (ATLAS)

L.Denneauの通報によると、9月29日UT、チリ Rio Hurtadoにある小惑星地球衝突最終警報
システム Asteroid Terrestrial-impact Last Alert System (ATLAS)調査プログラムの
コースに0.5-m f/2 Schmidt反射望遠鏡で得たCCD画像から彗星を発見した。
拡散した8".5のコマがある。
小惑星センターのPCCP webpageに公表後、M. Mattiazzo (Swan Hill, Victoria, オーストラ
リア, 9月30.0日UT, 120秒-CMOS露出+グリーンフィルターのスタック,500-mm f/2.8 高橋イプ
シロン180ED 反射望遠鏡,  Rio Hurtado, Valley, チリ: 拡散状で幅70"のコマが見える。全
V光度は13.2等。10月1.4日, Celestron RASA 0.28-m f/2.2 アストログラフ, Swan Hill;
拡散状で2'のコマが見える。UCAC4による全V光度は13.0等であった)、佐藤英貴氏(東京都文京区, 
9月30.0日, 10-秒露出10枚のスタック, "Deep Sky Chile" 0.51-m f/6.8 アストログラフ, Rio 
Hurtado, チリ, 遠隔操作; 強く集光した40" のコマが見えるが尾はない。20".2の円形範囲で
測定した光度は13.8等であった)、佐藤裕久(福島県須賀川市, 10月2.42日, 45-秒露出19枚の
スタック, 0.25-m f/4 反射望遠鏡; 中程度に集光した約0'.8のコマが見えるが尾はない。全光度
は14.2等であった)や吉見政義氏(京都市福知山市, 10月2.44日UT, 強く集光し、45"の外側のコマ
が見えるが尾はなし。全光度は14.0等であった)らCCD位置観測者によって彗星状と観測された。

彗星機能の報告は次のとおり、

OC   Date        Reporter           Coma    Tail    PA          Exposures
Q62  2023-09-29  K. Yoshimoto      45"       30"    105          10x60s
595  2023-09-29  E. Pettarin       10"       29"     50-125      75x20s
L06  2023-09-29  P. Sicoli                   12"    335
M49  2023-09-29  D. Husar          26"
X07  2023-09-29  H. Sato           40"                           24x10s
X07  2023-09-30  M. Mattiazzo      70"
I47  2023-09-30  M. Masek          36"                           47x60s
Q56  2023-09-30  E. Guido          80"                           20x60s
C40  2023-09-30  A. Ivanov        120"     
M14  2023-09-30  M. Auteri         15"                          112x15s
M49  2023-09-30  D. Husar          35" 
204  2023-09-30  A. Aletti         20"       15"    115       
L81  2023-09-30  N. Paul           32"       24"    105           8x50s
X06  2023-10-01  D. Husar          14"       20"     90          30x60s
Q38  2023-10-01  M. Mattiazzo     120" 
X07  2023-10-01  T. Prystavski    150"                            6x60s
215  2023-10-01  W. Hasubick       47"                           20x20s
G18  2023-10-01  A. Valvasori      37"                           80x30s
Q23  2023-10-02  H. Sato           48"                           19x45s
903  2023-10-02  M. Yoshimi        45"                           36x30s
L81  2023-10-02  R. Ligustri       40"

発見位置は次のとおり、

     2023 UT             R.A. (2000) Decl.       Mag.
     Sept.28.98636   15 54 22.83   - 5 53 57.3   15.1
          28.98953   15 54 23.53   - 5 53 57.9   15.1
          28.99819   15 54 25.48   - 5 53 58.0   15.2
          29.00969   15 54 28.06   - 5 53 57.7   15.4

MPCの楕円軌道要素、位置推算表は次のとおり、

Orbital elements:
    C/2023 S2 (ATLAS)                                                           
Epoch 2023 Sept. 13.0 TT = JDT 2460200.5                                        
T 2023 Oct. 15.39406 TT                                 Rudenko                 
q   1.0669433            (2000.0)            P               Q                  
z  +0.0079163      Peri.   78.16869     +0.57808377     +0.76993113             
 +/-0.0235058      Node   230.57636     -0.81574385     +0.55322923             
e   0.9915537      Incl.   20.47676     +0.01952217     +0.31803063             
From 183 observations 2023 Sept. 28-Oct. 2, mean residual 0".6.                 
                                                                                
Ephemeris:
Date    TT    R. A. (2000) Decl.     Delta      r    Elong.  Phase   m1
2023 09 02    14 27 45.5 -05 31 04   1.4900  1.2803    57.9    41.9  16.9
...
2023 09 17    15 12 17.6 -05 46 40   1.4107  1.1648    54.6    44.7  16.4
...
2023 09 25    15 39 42.8 -05 52 38   1.3639  1.1189    53.8    46.4  16.2
...
2023 10 01    16 02 03.0 -05 54 11   1.3284  1.0932    53.8    47.6  16.0
2023 10 02    16 05 55.4 -05 54 08   1.3226  1.0898    53.8    47.8  16.0
2023 10 03    16 09 50.4 -05 53 59   1.3168  1.0865    53.8    48.1  16.0
...
2023 10 09    16 34 15.5 -05 50 41   1.2832  1.0722    54.3    49.2  15.8
...
2023 10 17    17 09 14.0 -05 38 51   1.2435  1.0673    55.6    50.4  15.8
...
2023 11 01    18 21 21.1 -04 47 26   1.1980  1.1017    59.5    50.9  15.8

(MPEC 2023-T05、CBET 5299、oaa-comet 5574, 5577, 5588)


フラット表示 前のトピック | 次のトピック

題名 投稿者 日時
 » Comet C/2023 S2 (ATLAS) 佐藤裕久 2023-10-13 18:41

投稿するにはまず登録を
 
© 1999 Tsutomu Seki.